This is the latest recevied weather packets stored in our database for station/object IZ1UQG-1. If no packets are shown the sender has not sent any weather packets the latest 10 day(s).
| Time | Temp. | Humidity | Pressure | Rain* | Wind** | Luminosity | Snow |
|---|---|---|---|---|---|---|---|
| 1777747441 | 22.78° C | 42% | 1018.8 hPa | 156.72 mm | - | - | - |
| 1777747141 | 22.78° C | 42% | 1018.7 hPa | 136.4 mm | - | - | - |
| 1777746841 | 22.78° C | 43% | 1018.6 hPa | 148.34 mm | - | - | - |
| 1777746541 | 23.33° C | 42% | 1018.7 hPa | 158.75 mm | - | - | - |
| 1777746241 | 23.33° C | 42% | 1018.4 hPa | 148.84 mm | - | - | - |
| 1777745941 | 23.33° C | 42% | 1018.4 hPa | 111.51 mm | - | - | - |
| 1777745641 | 23.89° C | 42% | 1018.3 hPa | 102.36 mm | - | - | - |
| 1777745341 | 23.89° C | 41% | 1018.3 hPa | 57.15 mm | - | - | - |
| 1777745041 | 23.89° C | 41% | 1018.4 hPa | 60.2 mm | - | - | - |
| 1777744741 | 24.44° C | 40% | 1018.2 hPa | 230.38 mm | - | - | - |
| 1777744441 | 24.44° C | 40% | 1018.2 hPa | 235.46 mm | - | - | - |
| 1777744141 | 24.44° C | 39% | 1018.2 hPa | 232.92 mm | - | - | - |
| 1777743841 | 25° C | 38% | 1018.2 hPa | 209.55 mm | - | - | - |
| 1777743541 | 25° C | 38% | 1018.3 hPa | 214.38 mm | - | - | - |
| 1777743241 | 25° C | 38% | 1018.1 hPa | 205.99 mm | - | - | - |
| 1777742941 | 25.56° C | 38% | 1018.1 hPa | 191.01 mm | - | - | - |
| 1777742641 | 25.56° C | 37% | 1018.2 hPa | 196.09 mm | - | - | - |
| 1777742341 | 25.56° C | 37% | 1018.1 hPa | 191.52 mm | - | - | - |
| 1777742041 | 25.56° C | 37% | 1018.2 hPa | 200.41 mm | - | - | - |
| 1777741741 | 25.56° C | 37% | 1018.3 hPa | 205.99 mm | - | - | - |
| 1777741441 | 26.11° C | 36% | 1018.2 hPa | 212.85 mm | - | - | - |
| 1777741141 | 26.67° C | 36% | 1018.2 hPa | 199.9 mm | - | - | - |
| 1777740841 | 26.67° C | 35% | 1018.3 hPa | 222 mm | - | - | - |
| 1777740541 | 26.67° C | 35% | 1018.3 hPa | 219.46 mm | - | - | - |
| 1777740241 | 26.67° C | 35% | 1018.3 hPa | 224.79 mm | - | - | - |
* Rain latest hour (hover to see other rain measurements)
** Current wind speed in m/s (hover to see current wind gust speed)